This demonstration page uses our WeatherBlox Daily Observations layout. Learn more.

Left ArrowRight Arrow

44.8408, -93.29828

Hourly Observations for July 17, 2019

Temp ( °F °C ) Dew Point ( °F °C ) Humidity (%) Winds ( mph kmh ) Pressure ( in mb ) Visibility ( mi km ) Precip ( " mm )
12:53 am 00:53 Mostly Clear 75 23.9 68 20 79 79 Calm 29.88 1012 10 16 0.00 0.00
1:53 am 01:53 Mostly Clear 75 23.9 69 20.6 82 82 Calm 29.89 1012 10 16 0.00 0.00
2:53 am 02:53 Partly Cloudy 73 22.8 69 20.6 87 87 SE 6 9 29.88 1012 10 16 0.00 0.00
3:53 am 03:53 Partly Cloudy 72 22.2 69 20.6 91 91 SE 6 9 29.88 1012 10 16 0.00 0.00
4:53 am 04:53 Mostly Cloudy 71 21.7 68 20 90 90 SSE 5 7 29.88 1012 10 16 0.00 0.00
5:53 am 05:53 Partly Cloudy 70 21.1 67 19.4 90 90 SE 6 9 29.86 1011 10 16 0.00 0.00
6:53 am 06:53 Mostly Cloudy 71 21.7 67 19.4 87 87 SSE 8 13 29.88 1012 10 16 0.00 0.00
7:53 am 07:53 Mostly Cloudy 74 23.3 68 20 82 82 S 6 9 29.88 1012 10 16 0.00 0.00
8:53 am 08:53 Cloudy 75 23.9 69 20.6 82 82 SE 7 11 29.88 1012 10 16 0.00 0.00
9:53 am 09:53 Cloudy 76 24.4 69 20.6 79 79 S 7 11 29.88 1012 10 16 0.00 0.00
10:53 am 10:53 Cloudy 75 23.9 70 21.1 84 84 S 14 22 29.87 1012 10 16 0.00 0.00
11:01 am 11:01 Cloudy 75 23.9 70 21.1 84 84 SSE 9 15 29.85 1011 10 16 0.00 0.00
11:53 am 11:53 Cloudy 76 24.4 71 21.7 85 85 SSE 10 17 29.85 1011 10 16 0.00 0.00
12:37 pm 12:37 Cloudy 78 25.6 71 21.7 79 79 ESE 16 26 29.77 1008 10 16 0.00 0.00
12:53 pm 12:53 Cloudy 79 26.1 71 21.7 77 77 SE 10 17 29.79 1009 10 16 0.00 0.00
1:27 pm 13:27 Cloudy 80 26.7 72 22.2 76 76 SSE 12 19 29.77 1008 10 16 0.00 0.00
1:53 pm 13:53 Mostly Cloudy 82 27.8 72 22.2 72 72 ESE 14 22 29.76 1008 10 16 0.00 0.00
2:20 pm 14:20 Cloudy 82 27.8 72 22.2 72 72 SE 16 26 29.77 1008 10 16 0.00 0.00
2:53 pm 14:53 Mostly Cloudy 84 28.9 72 22.2 67 67 SSE 15 24 29.76 1008 10 16 0.00 0.00
3:53 pm 15:53 Mostly Cloudy 84 28.9 72 22.2 67 67 SSE 17 28 29.76 1008 10 16 0.00 0.00
4:53 pm 16:53 Partly Cloudy 85 29.4 66 18.9 53 53 S 16 26 29.76 1008 10 16 0.00 0.00
5:53 pm 17:53 Mostly Sunny 85 29.4 66 18.9 53 53 S 14 22 29.75 1008 10 16 0.00 0.00
6:53 pm 18:53 Mostly Sunny 83 28.3 68 20 61 61 SSW 13 20 29.75 1007 10 16 0.00 0.00
7:53 pm 19:53 Mostly Sunny 82 27.8 68 20 63 63 SSW 9 15 29.75 1008 10 16 0.00 0.00
8:53 pm 20:53 Mostly Sunny 81 27.2 69 20.6 67 67 SSW 9 15 29.75 1008 10 16 0.00 0.00
9:53 pm 21:53 Mostly Clear 80 26.7 70 21.1 71 71 SW 6 9 29.75 1008 10 16 0.00 0.00
10:53 pm 22:53 Partly Cloudy 78 25.6 71 21.7 79 79 SSW 7 11 29.75 1008 10 16 0.00 0.00
11:53 pm 23:53 Mostly Cloudy 77 25 71 21.7 82 82 SW 8 13 29.74 1007 10 16 0.00 0.00

Powered by AerisWeather